This is the latest recevied weather packets stored in our database for station/object N0QV. If no packets are shown the sender has not sent any weather packets the latest 10 day(s).
| Time | Temp. | Humidity | Pressure | Rain* | Wind** | Luminosity | Snow |
|---|---|---|---|---|---|---|---|
| 1788376878 | 31.11° C | 61% | 1011.6 hPa | 0 mm | - | 560 W/m² | - |
| 1788376574 | 31.11° C | 61% | 1011.6 hPa | 0 mm | - | 614 W/m² | - |
| 1788376273 | 31.11° C | 64% | 1011.8 hPa | 0 mm | - | 393 W/m² | - |
| 1788375969 | 30.56° C | 60% | 1011.7 hPa | 0 mm | - | 622 W/m² | - |
| 1788375664 | 30° C | 64% | 1011.7 hPa | 0 mm | - | 590 W/m² | - |
| 1788375360 | 30° C | 65% | 1011.9 hPa | 0 mm | - | 164 W/m² | - |
| 1788375056 | 30° C | 64% | 1011.7 hPa | 0 mm | - | 176 W/m² | - |
| 1788374750 | 29.44° C | 63% | 1011.8 hPa | 0 mm | - | 179 W/m² | - |
| 1788374446 | 29.44° C | 64% | 1011.8 hPa | 0 mm | - | 241 W/m² | - |
| 1788374142 | 30° C | 64% | 1011.9 hPa | 0 mm | - | 93 W/m² | - |
| 1788373838 | 30° C | 63% | 1012.1 hPa | 0 mm | - | 92 W/m² | - |
| 1788373534 | 30° C | 62% | 1012.2 hPa | 0 mm | - | 196 W/m² | - |
| 1788373231 | 29.44° C | 63% | 1012.2 hPa | 0 mm | - | 338 W/m² | - |
| 1788372926 | 30° C | 62% | 1012.2 hPa | 0 mm | - | 190 W/m² | - |
| 1788372620 | 29.44° C | 63% | 1012.1 hPa | 0 mm | - | 95 W/m² | - |
| 1788372320 | 29.44° C | 63% | 1012.3 hPa | 0 mm | - | 550 W/m² | - |
| 1788372016 | 29.44° C | 63% | 1012.5 hPa | 0 mm | - | 568 W/m² | - |
| 1788371716 | 28.89° C | 65% | 1012.5 hPa | 0 mm | - | 557 W/m² | - |
| 1788371412 | 28.89° C | 63% | 1012.8 hPa | 0 mm | - | 562 W/m² | - |
| 1788371109 | 29.44° C | 63% | 1012.8 hPa | 0 mm | - | 506 W/m² | - |
| 1788370804 | 28.89° C | 64% | 1012.9 hPa | 0 mm | - | 521 W/m² | - |
| 1788370503 | 28.89° C | 65% | 1012.7 hPa | 0 mm | - | 232 W/m² | - |
| 1788370199 | 28.33° C | 63% | 1012.9 hPa | 0 mm | - | 112 W/m² | - |
| 1788369898 | 28.33° C | 63% | 1012.9 hPa | 0 mm | - | 114 W/m² | - |
| 1788369593 | 28.33° C | 63% | 1012.9 hPa | 0 mm | - | 242 W/m² | - |
* Rain latest hour (hover to see other rain measurements)
** Current wind speed in m/s (hover to see current wind gust speed)